"Pseudo-MPEC" for P20OQV0

Created 2019 Jun 17 16:07:55 UT using Find_Orb

Click here for an explanation of pseudo-MPECs

 
 Astrometry: 
     P20OQV0  C2019 05 29,v*97w,90]o6G0],tIAy1DAIu0V]9cc6GMy.@cEiymyTP_NS'(dKF52
     P20OQV0  C2019 05 29IgF3D)MaF=b#D;ed$1SX$-2.F:aMB%SEmyY7],R]In`G0L14]F;%F52
     P20OQV0  C2019 05 292#LMSoC,o6`N'w43Z7(A^8GI*AMyG_Mf@\=gQTMY5$mI^^QYBikIF52
     P20OQV0  C2019 06 08d2v=36s`mA81.i?5T9I#Q-.eOQktAstrometry!0aQMtgG5jnV(%F52
     P20OQV0  C2019 06 08LDS(SFR0w_?bip.cKJ#EyDFh4;xq@w?IYro1(lq!/`r=#w5(Z'E'F52
     P20OQV0  C2019 06 08I3vG^p=55foa[j'Qk67=So;hwo#X:^'(Z(fPE@eq'Qq')=rtZ%iOF52
     P20OQV0 KC2019 06 08HfEKD9c%Aw-b',GqiOq@S#q%x,*A[R.ZW,ttfoqsWyZuFQdO#_*0L01
     P20OQV0 KC2019 06 08b!5`-?(CLj#]PQXG)j$(JT)Ur2XWB@rWYQbVW,Zn]eS20Ck8Gyu#L01
     P20OQV0 KC2019 06 08q.5O$XoPiO0@8@QxTF[@L5R\2wOZvJ]n2LCk*lAtA+n3LF2lGFr6L01
     P20OQV0  C2019 06 09.28612 16 55 53.71 +18 00 48.8    ~697b 20.4 GVNEOCPI52
     P20OQV0  C2019 06 09.28919 16 55 53.36 +18 00 13.8    ~697b 20.4 GVNEOCPI52
     P20OQV0  C2019 06 09.29227 16 55 53.01 +17 59 38.8    ~697b 20.9 GVNEOCPI52
     P20OQV0  C2019 06 09.29534 16 55 52.68 +17 59 04.2    ~697b 20.8 GVNEOCPI52
     P20OQV0  C2019 06 09SUI*^]'b@OOlL@Qa%9ms's?mye:^QSmT]+7m1mBWsb.k$3+K-fDYF51
     P20OQV0  C2019 06 09CFsC^$P+Xh6o,)T^MBF?F4$qujo!I9!v6_!gjY/ZO;/IDGw@Hpg\F51
     P20OQV0 KC2019 06 10N8W.2A!h=kM2rxAR'redacted;7pj`n875:-Vv5H-S0st1a8W5ViH21
     P20OQV0 KC2019 06 10a.1miZb2L!fa1wZI*jB%V*q3s'V4jA'YCE9`2e`3+!EGRYJ7IGpYH21
     P20OQV0 KC2019 06 10+gFXH#l8DsrBs1(+QBr\w=^PPbgT/]3n$ZLL7?5l7We_pS[hjY`(H21
     P20OQV0 KC2019 06 10/6jPDTgXHEluK]mjr_[*J^itkKc5^#=Gmbw8pJ=pmhSa3%Fn/KRSK88
     P20OQV0 KC2019 06 10ExXb3e+cYG:clickK=2u[OkO=xjP#6E3;Q@aOx#=:CH#Iq'f)GXGK88
     P20OQV0 KC2019 06 10POE@1%iL0/g:-kW!4Y$j(OqnXMojt@s@FuQ%eX5NEO\j`]XsH!ksK88
     P20OQV0  C2019 06 11I$snNs4G94wEmW]jfGMd%FZ(%UK)VDx*qf,1U]0Hyg+CCrJjEhJEF52
     P20OQV0  C2019 06 11H,GMaM1qKcVCO.*ySx_8A(0kM/YQU[]Vcx)tJU]xfB,qhereA$$sF52
     P20OQV0  C2019 06 11c:E'`r6s#kU`Hr9+lc`OC8;exf`DY?;MeBg7X;;$JUBn14WLcTX?F52
     P20OQV0  C2019 06 11=yYsCl98@XZaomdKL@Qn4(FBforEaXtXW-QTjmtH'[rt8\ydP3kGF52
     P20OQV0 KC2019 06 12okioE*Msb^'nl[^_UaAj3o(ooGLyexplanationZqF)jx;NKikcJH21
     P20OQV0 KC2019 06 12_V+wo`86*K,3u!4!TnLUQByP]MU?P#O[!Du95?Am:v'oPOA+c*V2H21
     P20OQV0 KC2019 06 122'P+W.Zmc$BVmHu4;5dv^oK%T,h9CKN$U35=m(LK]?MX.CHL?,AEH21
     P20OQV0  C2019 06 12.36015 16 52 07.82 +08 55 15.5    ~6C97 20.6 GVNEOCPI52
     P20OQV0  C2019 06 12.36431 16 52 07.53 +08 54 33.4    ~6C97 20.0 GVNEOCPI52
     P20OQV0  C2019 06 12.36528 16 52 07.45 +08 54 23.7    ~6C97 20.4 GVNEOCPI52
     P20OQV0  C2019 06 12.36625 16 52 07.37 +08 54 14.4    ~6C97 20.5 GVNEOCPI52
     P20OQV0  C2019 06 13.31008 16 51 10.88 +06 20 57.9    ~6D8M 20.6 GVNEOCPI52
     P20OQV0  C2019 06 13.31677 16 51 10.33 +06 19 53.7    ~6D8M 21.1 GVNEOCPI52
     P20OQV0  C2019 06 13.31958 16 51 10.17 +06 19 27.4    ~6D8M 20.3 GVNEOCPI52
     P20OQV0  C2019 06 13.32055 16 51 10.05 +06 19 17.5    ~6D8M 20.1 GVNEOCPI52

Station data:
(F51) Pan-STARRS 1, Haleakala  (N20.707235 W156.255910)  US/Hawaii.
   Observers N. Primak, A. Schultz, S. Watters, J. Thiel, T. Goggia. Measurer
   PS1 Science Consortium. 1.8-m Ritchey-Chrétien + CCD.
(F52) Pan-STARRS 2, Haleakala  (N20.707384 W156.255910)  US/Hawaii. 1.8-m
   Ritchey-Chrétien + CCD.
(H21) Astronomical Research Observatory, Westfield  (N39.483057 W87.968270)
   US/Illinois. 0.76-m f/3.0 astrograph + CCD.
(I52) Steward Observatory, Mt. Lemmon Station  (N32.442547 W110.788920)
   US/Arizona.  Observers T. A. Pruyne, B. M. Africano, E. J. Christensen, G.
   A. Farneth, D. C. Fuls, A. R. Gibbs, A. D. Grauer, H. Groeller, J. A.
   Johnson, R. A. Kowalski, S. M. Larson, G. J. Leonard, R. L. Seaman, F. C.
   Shelly. 1.0-m reflector + CCD.
(K88) GINOP-KHK, Piszkéstető  (N47.917622 E19.893600)  Hungary.  Observer K.
   Sárneczky. 0.60-m Schmidt + CCD.
(L01) Višnjan Observatory, Tičan  (N45.290900 E13.749300)  Croatia.
   Observers K. Korlević, E. Pettarin. Measurer E. Pettarin. 1.0-m f/2.9
   reflector + CCD.

Orbital elements:  P20OQV0
   Perihelion 2019 Apr 2.624463 +/- 0.0514 TT = 14:59:13 (JD 2458576.124463)
Epoch 2019 Jun 13.0 TT = JDT 2458647.5   Earth MOID: 0.0780   Ma: 0.0751
M  46.46706997 +/- 0.12             (J2000 ecliptic)          AutoNEOCP
n   0.65102235 +/- 0.00125          Peri.   82.96684 +/- 0.040
a   1.31847565 +/- 0.00168          Node    93.89216 +/- 0.009
e   0.3391741 +/- 0.000948          Incl.   13.00191 +/- 0.035
P   1.51/552.97d           H 23.7   G  0.15   U  8.3  
q 0.87128284 +/- 0.000137    Q 1.76566846 +/- 0.00349
From 36 observations 2019 May 29-June 13; mean residual 0".34
Residuals in arcseconds: 
190529 F52  .27-  .25+    190609 I52  .10+  .58-    190611 F52  .01+  .57-    
190529 F52  .49-  .33-    190609 F51  .14-  .55-    190612 H21  .23+  .15+    
190529 F52  .79+  .07+    190609 F51  .05+  .13-    190612 H21  .28+  .03+    
190608 F52  .07+  .44+    190610 H21  .14+  .09+    190612 H21  .14-  .31+    
190608 F52  .18+  .54+    190610 H21  .08+  .16+    190612 I52  .71-  .21+    
190608 F52  .06+  .62+    190610 H21  .24+  .35+    190612 I52  .36+  .30-    
190608 L01  .30-  .00     190610 K88  .13-  .22+    190612 I52  .43+  .31-    
190608 L01  .42-  .07-    190610 K88  .22-  .35+    190612 I52  .49+  .09+    
190608 L01  .20+  .84-    190610 K88  .33-  .38+    190613 I52  .59-  .18+    
190609 I52  .10+  .20+    190611 F52  .02-  .27-    190613 I52  .44-  .29-    
190609 I52  .00   .24-    190611 F52  .04-  .07+    190613 I52  .67+  .17+    
190609 I52  .09-  .56-    190611 F52  .09-  .41+    190613 I52  .09+  .49-    

Ephemerides (geocentric):
Date (UTC) HH   RA              Dec         delta   r     elong  mag " sig PA
---- -- -- --  -------------   -----------  ------ ------ -----  --- ---- ---
2019 06 17 16  16 47 41.300   -03 53 41.97  .14143 1.1470 156.5 20.7 .501 109
2019 06 17 17  16 47 39.697   -03 58 51.96  .14163 1.1472 156.5 20.7 .506 109
2019 06 17 18  16 47 38.101   -04 04 01.17  .14182 1.1475 156.6 20.7 .511 109
2019 06 17 19  16 47 36.512   -04 09 09.60  .14202 1.1477 156.6 20.7 .515 110
2019 06 17 20  16 47 34.931   -04 14 17.25  .14221 1.1479 156.7 20.7 .520 110
2019 06 17 21  16 47 33.356   -04 19 24.12  .14241 1.1481 156.7 20.7 .525 110
2019 06 17 22  16 47 31.789   -04 24 30.21  .14261 1.1484 156.7 20.7 .530 110
2019 06 17 23  16 47 30.229   -04 29 35.52  .14281 1.1486 156.8 20.7 .534 110
2019 06 18 00  16 47 28.676   -04 34 40.07  .14300 1.1488 156.8 20.7 .539 110
2019 06 18 01  16 47 27.131   -04 39 43.83  .14320 1.1490 156.9 20.7 .544 110
2019 06 18 02  16 47 25.592   -04 44 46.83  .14340 1.1493 156.9 20.7 .549 110
2019 06 18 03  16 47 24.060   -04 49 49.06  .14360 1.1495 156.9 20.7 .553 110
2019 06 18 04  16 47 22.536   -04 54 50.51  .14380 1.1497 157.0 20.8 .558 111
2019 06 18 05  16 47 21.018   -04 59 51.20  .14400 1.1499 157.0 20.8 .563 111
2019 06 18 06  16 47 19.508   -05 04 51.12  .14420 1.1502 157.1 20.8 .568 111
2019 06 18 07  16 47 18.005   -05 09 50.28  .14440 1.1504 157.1 20.8 .573 111
2019 06 18 08  16 47 16.509   -05 14 48.67  .14460 1.1506 157.1 20.8 .578 111
2019 06 18 09  16 47 15.020   -05 19 46.30  .14481 1.1508 157.2 20.8 .583 111
2019 06 18 10  16 47 13.537   -05 24 43.17  .14501 1.1510 157.2 20.8 .588 111
2019 06 18 11  16 47 12.062   -05 29 39.28  .14521 1.1513 157.2 20.8 .593 111
2019 06 18 12  16 47 10.594   -05 34 34.63  .14541 1.1515 157.3 20.8 .598 111
2019 06 18 13  16 47 09.133   -05 39 29.22  .14562 1.1517 157.3 20.8 .602 111
2019 06 18 14  16 47 07.679   -05 44 23.05  .14582 1.1519 157.3 20.8 .607 111
2019 06 18 15  16 47 06.232   -05 49 16.14  .14602 1.1522 157.4 20.8 .612 112
2019 06 18 16  16 47 04.792   -05 54 08.47  .14623 1.1524 157.4 20.8 .617 112
2019 06 18 17  16 47 03.358   -05 59 00.04  .14643 1.1526 157.4 20.8 .623 112
2019 06 18 18  16 47 01.932   -06 03 50.87  .14664 1.1528 157.5 20.8 .628 112
2019 06 18 19  16 47 00.513   -06 08 40.95  .14684 1.1531 157.5 20.8 .633 112
2019 06 18 20  16 46 59.100   -06 13 30.28  .14705 1.1533 157.5 20.8 .638 112
2019 06 18 21  16 46 57.695   -06 18 18.87  .14726 1.1535 157.6 20.8 .643 112
2019 06 18 22  16 46 56.296   -06 23 06.71  .14746 1.1537 157.6 20.8 .648 112
2019 06 18 23  16 46 54.904   -06 27 53.81  .14767 1.1540 157.6 20.8 .653 112
2019 06 19 00  16 46 53.519   -06 32 40.17  .14788 1.1542 157.7 20.8 .658 112
2019 06 19 01  16 46 52.141   -06 37 25.79  .14809 1.1544 157.7 20.8 .663 112
2019 06 19 02  16 46 50.770   -06 42 10.66  .14829 1.1546 157.7 20.8 .668 112
2019 06 19 03  16 46 49.406   -06 46 54.81  .14850 1.1549 157.8 20.8 .674 113
2019 06 19 04  16 46 48.049   -06 51 38.21  .14871 1.1551 157.8 20.8 .679 113
2019 06 19 05  16 46 46.698   -06 56 20.88  .14892 1.1553 157.8 20.8 .684 113
2019 06 19 06  16 46 45.354   -07 01 02.82  .14913 1.1555 157.8 20.8 .689 113
2019 06 19 07  16 46 44.017   -07 05 44.03  .14934 1.1558 157.9 20.8 .694 113
2019 06 19 08  16 46 42.687   -07 10 24.51  .14955 1.1560 157.9 20.8 .700 113
2019 06 19 09  16 46 41.363   -07 15 04.26  .14976 1.1562 157.9 20.8 .705 113
2019 06 19 10  16 46 40.047   -07 19 43.28  .14997 1.1564 157.9 20.8 .710 113
2019 06 19 11  16 46 38.737   -07 24 21.58  .15019 1.1567 158.0 20.8 .715 113
2019 06 19 12  16 46 37.434   -07 28 59.15  .15040 1.1569 158.0 20.8 .721 113
2019 06 19 13  16 46 36.137   -07 33 36.00  .15061 1.1571 158.0 20.8 .726 113
2019 06 19 14  16 46 34.848   -07 38 12.13  .15082 1.1573 158.0 20.8 .731 113
2019 06 19 15  16 46 33.565   -07 42 47.55  .15104 1.1576 158.1 20.8 .737 113